Probability
0 0 0 0 0 0 0 0 0 0 0 0 0 0 0 0 0 0 0 0 0 0 0 0 0 0 0 0 0 0 0 0 0 0 0 0 0 0 0 0 0 0 0 0
0 0 0 0 0 0 0 0 0 0 0 0 0 0 0 0 0 0 0 0 0 0 0 0 0 0 0 0 0 0 0 0 0 0 0 0 0 0 0 0 0 0 0 0
0 0 0 0 0 0 0 0 0 0 0 0 0 0 0 0 0 0 0 0 0 0 0 0 0 0 0 0 0 0 0 0 0 0 0 0 0 0 0 0 0 0 0 0
0 0 0 0 0 0 0 0 0 0 0 0 0 0 0 0 0 0 0 0 0 0 0 0 0 0 0 0 0 0 0 0 0 0 0 0 0 0 0 0 0 0 0 0
0 0 0 0 0 0 0 0 0 0 0 0 0 0 0 0 0 0 0 0 0 0 0 0 0 0 0 0 0 0 0 0 0 0 0 0 0 0 0 0 0 0 0 0
0 0 0 0 0 0 0 0 0 0 0 0 0 0 0 0 0 0 0 0 0 0 0 0 0 0 0 0 0 0 0 0 0 0 0 0 0 0 0 0 0 0 0 0
0 0 0 0 0 0 0 0 0 0 0 0 0 0 0 0 0 0 0 0 0 0 0 0 0 0 0 0 0 0 0 0 0 0 0 0 0 0 0 0 0 0 0 0
0 0 0 0 0 0 0 0 0 0 0 0 0 0 0 0 0 0 0 0 0 0 0 0 0 0 0 0 0 0 0 0 0 0 0 0 0 0 0 0 0 0 0 0
0 0 0 0 0 0 0 0 0 0 0 0 0 0 0 0 0 0 0 0 0 0 0 0 0 0 0 0 0 0 0 0 0 0 0 0 0 0 0 0 0 0 0 0
0 0 0 0 0 0 0 0 0 0 0 0 0 0 0 0 0 0 0 0 0 0 0 0 0 0 0 0 0 0 0 0 0 0 0 0 0 0 0 0 0 0 0 0
0 0 0 0 0 0 0 0 0 0 0 0 0 0 0 0 0 0 0 0 0 0 0 0 0 0 0 0 0 0 0 0 0 0 0 0 0 0 0 0 0 0 0 0
0 0 0 0 0 0 0 0 0 0 0 0 0 0 0 0 0 0 0 0 0 0 0 0 0 0 0 0 0 0 0 0 0 0 0 0 0 0 0 0 0 0 0 0
0 0 0 0 0 0 0 0 0 0 0 0 0 0 0 0 0 0 0 0 0 0 0 0 0 0 0 0 0 0 0 0 0 0 0 0 0 0 0 0 0 0 0 0
0 0 0 0 0 0 0 0 0 0 0 0 0 0 0 0 0 0 0 0 0 0 0 0 0 0 0 0 0 0 0 0 0 0 0 0 0 0 0 0 0 0 0 0
0 0 0 0 0 0 0 0 0 0 0 0 0 0 0 0 0 0 0 0 0 0 0 0 0 0 0 0 0 0 0 0 0 0 0 0 0 0 0 0 0 0 0 0
0 0 0 0 0 0 0 0 0 0 0 0 0 0 0 0 0 0 0 0 0 0 0 0 0 0 0 0 0 0 0 0 0 0 0 0 0 0 0 0 0 0 0 0
0 0 0 0 0 0 0 0 0 0 0 0 0 0 0 0 0 0 0 0 0 0 0 0 0 0 0 0 0 0 0 0 0 0 0 0 0 0 0 0 0 0 0 0
0 0 0 0 0 0 0 0 0 0 0 0 0 0 0 0 0 0 0 0 0 0 0 0 0 0 0 0 0 0 0 0 0 0 0 0 0 0 0 0 0 0 0 0
0 0 0 0 0 0 0 0 0 0 0 0 0 0 0 0 0 0 0 0 0 0 0 0 0 0 0 0 0 0 0 0 0 0 0 0 0 0 0 0 0 0 0 0
0 0 0 0 0 0 0 0 0 0 0 0 0 0 0 0 0 0 0 0 0 0 0 0 0 0 0 0 0 0 0 0 0 0 0 0 0 0 0 0 0 0 0 0
0 0 0 0 0 0 0 0 0 0 0 0 0 0 0 0 0 0 0 0 0 0 0 0 0 0 0 0 0 0 0 0 0 0 0 0 0 0 0 0 0 0 0 0
0 0 0 0 0 0 0 0 0 0 0 0 0 0 0 0 0 0 0 0 0 0 0 0 0 0 0 0 0 0 0 0 0 0 0 0 0 0 0 0 0 0 0 0
0 0 0 0 0 0 0 0 0 0 0 0 0 0 0 0 0 0 0 0 0 0 0 0 0 0 0 0 0 0 0 0 0 0 0 0 0 0 0 0 0 0 0 0
0 0 0 0 0 0 0 0 0 0 0 0 0 0 0 0 0 0 0 0 0 0 0 0 0 0 0 0 0 0 0 0 0 0 0 0 0 0 0 0 0 0 0 0
0 0 0 0 0 0 0 0 0 0 0 0 0 0 0 0 0 0 0 0 0 0 0 0 0 0 0 0 0 0 0 0 0 0 0 0 0 0 0 0 0 0 0 0
0 0 0 0 0 0 0 0 0 0 0 0 0 0 0 0 0 0 0 0 0 0 0 0 0 0 0 0 0 0 0 0 0 0 0 0 0 0 0 0 0 0 0 0
0 0 0 0 0 0 0 0 0 0 0 0 0 0 0 0 0 0 0 0 0 0 0 0 0 0 0 0 0 0 0 0 0 0 0 0 0 0 0 0 0 0 0 0
Wind_Speed
11 8 7 9 11 14 16 15 12 12 13 12 7 6 5 3 3 3 3 4 4 4 4 4 4 4 4 4 4 4 4 4 3 3 3 2 2 2 2 2 2 2 2 2
9 8 9 12 13 15 16 16 16 14 15 9 5 4 4 4 4 4 4 4 3 3 4 4 4 3 3 4 4 4 4 4 3 3 3 2 2 2 2 2 2 2 2 2
9 6 6 13 13 13 12 11 12 15 13 5 4 5 6 6 6 5 5 4 4 3 4 3 3 3 3 3 4 4 4 3 3 3 3 2 2 2 2 2 2 2 2 3
6 5 13 6 2 9 12 11 10 8 5 6 6 5 4 4 5 5 4 4 3 3 2 2 2 2 2 2 3 3 3 3 3 3 3 3 2 2 2 2 2 3 3 4
6 10 11 6 2 4 8 9 7 8 7 4 2 1 2 2 3 3 3 3 2 2 2 2 2 2 2 2 3 3 3 3 3 3 3 3 3 3 2 2 2 3 3 4
7 8 9 4 2 3 5 8 3 5 6 5 5 5 3 1 1 1 1 1 1 1 2 2 2 3 3 3 3 3 3 3 3 3 3 3 3 2 2 3 3 3 4 4
9 9 6 3 2 3 7 4 1 4 5 5 5 3 1 2 1 1 1 1 2 2 2 2 2 3 3 2 2 2 2 2 2 2 3 3 2 2 3 3 3 3 4 4
6 7 6 1 2 4 3 3 1 2 2 2 0 2 2 2 2 1 1 1 2 2 1 1 1 2 2 2 1 1 1 1 2 2 2 2 3 2 3 3 3 3 3 3
4 3 2 0 1 2 2 2 2 1 0 2 2 2 2 1 1 1 1 1 1 1 1 0 1 2 2 2 1 2 1 1 1 2 2 2 3 3 3 3 3 3 3 3
2 2 3 3 2 2 2 1 1 0 1 2 2 1 1 1 1 1 1 0 1 1 1 1 1 1 1 1 1 1 2 1 2 2 2 2 2 2 3 3 3 3 3 3
3 3 4 3 2 2 2 2 2 1 0 1 1 1 1 1 0 0 0 0 0 1 1 1 0 0 1 1 1 1 1 2 2 2 2 2 3 3 4 4 4 4 4 4
3 4 4 4 4 3 2 1 1 1 1 1 1 1 1 1 1 1 1 0 1 1 1 1 1 1 1 1 1 2 2 2 2 2 2 2 3 3 4 6 6 8 8 7
4 4 4 4 4 3 1 1 1 1 1 1 1 0 1 1 1 1 1 1 1 1 1 1 1 2 2 2 2 3 3 3 2 3 3 3 3 3 3 3 6 8 9 9
3 2 3 3 3 3 2 2 2 2 1 1 1 1 0 0 0 1 1 2 2 2 2 2 2 3 2 2 2 3 3 3 3 3 3 3 3 4 4 4 4 4 5 7
5 3 2 2 3 3 3 2 2 2 2 2 2 1 1 0 1 1 2 2 1 2 2 2 3 3 3 3 3 3 3 3 3 3 3 3 3 4 4 4 4 4 4 4
6 4 3 2 3 3 3 3 2 2 2 2 2 2 2 1 2 2 2 2 2 3 3 3 4 4 3 3 3 3 3 4 4 3 3 3 3 4 4 4 4 4 4 4
5 5 5 4 4 4 3 3 2 3 2 2 3 3 2 2 2 2 3 3 3 4 4 4 4 4 3 3 3 3 3 4 4 4 4 4 4 4 4 4 4 5 5 5
4 3 3 3 4 4 4 4 3 3 3 3 3 2 2 3 3 4 3 3 3 4 4 4 4 3 4 4 3 3 3 3 3 4 4 4 4 4 4 4 5 6 5 5
6 5 5 5 4 4 4 4 4 3 3 3 3 3 4 4 4 4 4 3 4 4 4 4 4 4 4 4 3 3 3 4 4 4 4 5 4 4 4 5 5 5 5 5
7 6 6 6 5 4 4 4 4 4 4 3 4 4 4 4 4 4 4 4 4 4 4 4 4 4 4 4 4 3 4 4 4 4 4 4 4 4 4 5 5 5 5 5
7 7 6 6 6 5 5 4 4 4 4 4 4 4 5 5 5 4 4 5 4 4 4 5 4 4 3 4 4 4 4 4 4 4 4 4 4 5 5 5 5 5 5 5
7 7 7 6 6 6 5 5 4 4 4 4 4 4 4 5 4 4 5 5 5 5 4 4 4 4 5 5 4 4 4 4 4 4 4 5 5 5 5 6 5 5 5 6
7 6 6 6 6 6 6 5 4 4 4 4 4 4 5 4 4 4 4 3 4 6 5 4 5 7 8 5 4 4 5 5 5 5 5 5 5 5 5 6 6 6 6 6
7 6 6 6 6 5 6 5 5 4 4 5 5 5 4 4 4 3 4 5 7 7 5 5 7 8 7 4 4 4 4 5 5 4 5 5 5 5 5 5 6 6 6 7
6 6 6 6 5 5 5 6 5 5 5 4 5 5 4 3 4 4 4 5 7 7 5 6 8 8 6 4 4 4 4 4 4 4 4 5 5 5 5 6 6 6 6 6
6 5 5 5 5 5 5 4 4 4 4 4 4 4 4 4 4 4 4 5 6 7 5 4 5 5 4 4 4 4 4 5 5 5 5 5 6 6 6 6 7 6 6 6
6 5 4 4 4 4 4 4 5 5 5 5 5 5 5 5 4 4 5 4 4 4 4 4 4 4 4 4 4 4 4 4 4 5 5 5 5 5 6 7 6 6 6 6
Wind_Direction
259 263 235 233 227 217 220 227 236 248 252 257 248 246 245 229 201 191 195 195 197 199 196 192 190 190 190 187 183 182 184 190 194 197 195 188 190 196 199 201 202 201 210 221
255 252 248 251 243 229 230 236 243 254 259 269 260 227 219 210 198 196 200 201 199 197 195 197 196 194 194 196 194 190 192 199 196 195 192 192 195 196 195 201 206 211 219 228
248 249 251 247 235 226 226 229 232 242 250 243 234 224 221 212 206 204 203 205 205 204 203 201 201 197 193 196 191 190 191 198 199 197 192 193 196 200 205 208 209 220 229 232
243 223 239 252 235 225 230 234 233 242 245 225 232 236 237 218 207 205 208 209 209 208 205 200 194 193 180 184 188 185 188 197 202 204 200 199 202 212 222 222 222 232 237 240
224 238 255 253 237 220 229 246 239 235 238 229 197 202 247 233 213 208 207 207 206 202 190 174 172 168 156 173 181 184 195 200 205 206 203 202 208 217 228 229 234 243 244 242
220 231 241 263 266 252 231 245 223 228 231 215 197 222 225 176 171 177 176 179 171 160 154 160 168 166 162 177 184 194 204 210 211 212 208 210 216 225 237 235 238 245 247 245
225 234 252 300 303 181 213 267 265 229 229 211 223 254 140 136 141 143 141 147 147 146 154 164 164 163 164 175 203 212 202 200 215 220 212 213 218 227 230 233 236 240 247 251
218 226 243 357 157 202 289 338 300 237 228 204 123 96 124 133 128 116 105 113 130 129 126 130 155 161 165 192 213 206 198 202 220 227 217 210 211 224 228 227 229 236 241 251
229 243 326 140 238 297 309 304 322 304 226 146 127 137 132 137 128 108 95 79 97 123 120 123 185 184 179 203 196 186 192 215 228 234 226 220 218 222 233 230 232 239 244 250
249 288 305 312 328 333 318 319 335 21 145 150 148 156 138 136 113 75 41 57 130 147 160 208 239 220 203 206 196 190 206 230 239 237 237 236 234 231 234 234 238 243 246 251
257 291 305 309 322 340 357 23 48 45 77 166 154 176 188 200 223 198 256 296 194 188 195 226 252 263 261 229 206 210 235 256 258 253 248 250 252 252 249 248 251 254 254 253
271 290 293 307 323 334 343 345 5 48 22 352 176 203 215 216 225 231 236 232 204 215 221 246 263 285 293 270 230 222 242 255 261 258 252 252 253 262 256 252 263 262 261 262
287 310 316 316 328 337 331 353 7 9 349 337 336 247 224 233 236 233 245 244 233 236 241 248 257 266 272 257 231 229 240 254 257 254 249 250 251 254 265 262 250 254 257 261
321 332 324 332 346 7 26 34 38 35 20 10 6 20 4 289 271 236 247 252 249 248 248 250 257 266 273 262 243 242 247 252 254 255 252 251 252 255 258 266 273 272 263 263
356 347 307 334 356 6 17 37 35 15 11 11 12 12 4 318 271 269 274 269 253 251 254 256 260 270 275 262 251 252 253 250 251 253 251 249 251 254 257 262 267 275 281 278
356 6 5 358 353 355 7 16 2 334 339 343 340 333 320 300 286 287 283 266 248 258 264 263 263 272 274 259 255 257 257 256 260 259 255 253 254 256 259 261 266 270 274 279
3 1 1 357 351 347 345 338 321 311 314 311 310 311 306 298 294 294 293 286 274 270 271 267 271 279 273 261 258 259 259 256 254 256 255 254 254 257 260 262 265 269 271 275
345 330 325 318 319 323 326 330 324 314 305 304 306 301 293 284 282 285 290 291 284 280 276 273 275 275 268 264 263 261 260 261 258 257 260 259 260 261 262 263 265 269 274 274
352 345 338 334 327 320 318 319 317 311 305 300 295 290 287 285 286 288 288 281 279 283 289 289 284 276 273 271 269 259 257 259 260 260 261 264 266 263 261 261 264 268 272 274
348 345 344 341 338 333 326 322 319 311 306 299 291 288 289 291 291 289 284 277 277 284 291 295 290 282 277 273 272 264 258 257 259 261 261 260 264 266 266 266 268 271 272 272
344 341 339 337 333 331 325 317 311 307 307 299 286 283 287 290 290 287 282 282 289 294 289 287 282 277 273 273 271 264 260 260 260 260 261 264 267 269 270 270 271 272 272 272
336 335 334 333 332 330 330 325 315 308 305 301 295 292 290 291 291 286 274 274 287 300 297 284 280 279 283 283 272 264 261 262 263 263 263 265 266 268 271 272 272 273 274 275
328 328 329 329 328 324 322 321 318 313 308 305 300 297 293 290 287 283 285 289 293 297 296 286 289 287 288 285 273 267 264 263 263 263 265 266 267 267 269 272 274 275 276 277
327 328 327 326 324 322 323 328 327 320 313 306 302 300 298 296 292 280 280 293 299 299 292 290 293 292 290 281 273 269 268 266 265 265 266 267 267 268 269 271 273 274 275 278
324 324 325 326 325 322 321 324 324 321 319 313 311 310 303 294 291 298 299 295 297 300 296 294 297 296 290 279 274 271 271 269 269 270 268 268 269 270 269 269 270 273 274 275
323 322 320 319 316 315 317 320 319 318 318 315 316 317 314 309 301 299 298 297 296 297 296 292 292 291 285 280 277 275 273 275 275 273 271 272 272 271 271 271 273 273 274 275
324 325 324 327 329 327 323 318 312 311 312 311 311 312 313 311 307 305 303 300 300 299 296 294 291 288 286 283 281 280 277 276 274 273 273 273 272 272 273 273 273 274 274 275